Location: Bettgenhausen
(50.6463°N, 7.5681°E)
Time: 20:13:10
(UTC+00:00)

Cosmos 2195 Rocket - Pass Details

Date: 27 February 2020
Orbit: 949 x 993 km, 82.9° (Epoch: 29 March)

Event Time Altitude Azimuth Distance (km) Brightness Sun altitude
Rises 18:55:29 0° 352° (N) 3,637 7.7 -18.0°
Reaches altitude 10° 18:58:02 10° 356° (N) 2,690 7.0 -18.4°
Maximum altitude 19:04:07 59° 76° (ENE) 1,097 4.5 -19.3°
Enters shadow 19:08:28 20° 151° (SSE) 2,080 5.9 -20.0°
